FW2647 Weather Reports


Display with metric or nautical units.
time (UTC)temp
F
wind
direction
speed
MPH
gust
MPH
rain 1hr
in
rain 24hr
in
rain mn
in
humidity
%
barometer
mb
20260506013214 45 316 2.0 5.0 0.00 0.00 0.00 98 1011.7
20260506012006 45 315 2.0 5.0 0.00 0.00 0.00 98 1011.9
20260506011006 46 313 2.0 4.0 0.00 0.00 0.00 94 1011.9
20260506010004 46 334 1.0 3.0 0.00 0.00 0.00 94 1011.9
20260506005005 46 4 1.0 4.0 0.00 0.00 0.00 94 1011.9
20260506004003 46 9 2.0 4.0 0.00 0.00 0.00 94 1012.0
20260506003005 46 338 3.0 10.0 0.00 0.00 0.00 93 1012.3
20260506002005 46 353 2.0 6.0 0.00 0.00 0.00 93 1012.2
20260506001006 46 39 4.0 6.0 0.00 0.00 0.00 93 1012.2
20260506000219 46 13 4.0 7.0 0.00 0.00 0.00 92 1012.4
20260505235219 46 24 4.0 7.0 0.00 0.00 0.00 92 1012.3
20260505234005 46 36 3.0 5.0 0.00 0.00 0.00 91 1012.3
20260505233003 46 2 2.0 6.0 0.00 0.00 0.00 91 1012.5
20260505232003 46 48 3.0 5.0 0.00 0.00 0.00 91 1012.6
20260505231005 46 22 5.0 8.0 0.00 0.00 0.00 90 1012.7
20260505230003 46 22 3.0 6.0 0.00 0.00 0.00 90 1012.7
20260505225004 47 30 3.0 7.0 0.00 0.00 0.00 90 1012.7
20260505224003 47 42 4.0 6.0 0.00 0.00 0.00 88 1012.6
20260505223005 47 34 4.0 6.0 0.00 0.00 0.00 87 1012.7
20260505222005 47 13 4.0 9.0 0.00 0.00 0.00 86 1012.8
20260505221005 47 43 4.0 6.0 0.00 0.00 0.00 85 1012.7
20260505220007 47 23 4.0 9.0 0.00 0.00 0.00 84 1012.7
20260505215004 47 33 4.0 8.0 0.00 0.00 0.00 84 1012.8
20260505214005 47 19 4.0 8.0 0.00 0.00 0.00 83 1012.8
20260505213217 47 28 3.0 7.0 0.00 0.00 0.00 83 1013.0
20260505212007 48 15 4.0 7.0 0.00 0.00 0.00 82 1013.0
20260505211006 48 42 4.0 8.0 0.00 0.00 0.00 82 1013.0
20260505210003 49 48 4.0 8.0 0.00 0.00 0.00 81 1013.0
20260505205008 49 41 4.0 7.0 0.00 0.00 0.00 80 1013.0
20260505204004 49 35 4.0 8.0 0.00 0.00 0.00 80 1013.0
20260505203217 49 43 4.0 8.0 0.00 0.00 0.00 79 1012.9
20260505202006 50 50 4.0 8.0 0.00 0.00 0.00 78 1012.8
20260505201006 50 50 6.0 9.0 0.00 0.00 0.00 77 1012.7
20260505200215 50 44 6.0 10.0 0.00 0.00 0.00 76 1012.7
20260505195005 51 47 6.0 11.0 0.00 0.00 0.00 75 1012.7
20260505194003 51 47 5.0 10.0 0.00 0.00 0.00 74 1012.5
20260505193009 52 62 5.0 10.0 0.00 0.00 0.00 74 1012.5
20260505192006 52 43 3.0 7.0 0.00 0.00 0.00 73 1012.4
20260505191003 53 65 4.0 7.0 0.00 0.00 0.00 71 1012.2
20260505190216 53 81 4.0 7.0 0.00 0.00 0.00 71 1012.3
20260505185006 53 84 3.0 6.0 0.00 0.00 0.00 70 1012.3
20260505184005 54 68 4.0 7.0 0.00 0.00 0.00 69 1012.2
20260505183006 54 89 5.0 11.0 0.00 0.00 0.00 67 1012.3
20260505182004 55 56 7.0 13.0 0.00 0.00 0.00 61 1012.2
20260505181004 56 81 5.0 7.0 0.00 0.00 0.00 61 1012.2
20260505180006 58 66 5.0 8.0 0.00 0.00 0.00 60 1012.2
20260505175008 58 84 4.0 8.0 0.00 0.00 0.00 61 1012.1
20260505174003 58 74 3.0 7.0 0.00 0.00 0.00 65 1012.1
20260505173003 57 106 3.0 6.0 0.00 0.00 0.00 63 1012.1
20260505172006 57 130 3.0 7.0 0.00 0.00 0.00 63 1012.2
20260505171003 57 64 3.0 6.0 0.00 0.00 0.00 61 1012.3
20260505170006 58 127 3.0 6.0 0.00 0.00 0.00 61 1012.3
20260505165213 58 117 3.0 8.0 0.00 0.00 0.00 60 1012.4
20260505164005 59 103 3.0 8.0 0.00 0.00 0.00 58 1012.3
20260505163220 60 97 4.0 11.0 0.00 0.00 0.00 57 1012.3
20260505162216 60 92 4.0 10.0 0.00 0.00 0.00 58 1012.3
20260505161006 60 144 4.0 8.0 0.00 0.00 0.00 55 1012.2
20260505153220 60 83 4.0 8.0 0.00 0.00 0.00 54 1012.2
20260505152003 60 73 5.0 11.0 0.00 0.00 0.00 52 1012.2
20260505151003 62 106 4.0 11.0 0.00 0.00 0.00 51 1012.3
20260505124005 64 113 4.0 11.0 0.00 0.00 0.00 47 1012.3
20260505123003 64 129 5.0 9.0 0.00 0.00 0.00 44 1012.4
20260505122006 64 131 3.0 7.0 0.00 0.00 0.00 47 1012.4
20260505121005 64 136 4.0 7.0 0.00 0.00 0.00 46 1012.4
20260505120215 64 135 4.0 11.0 0.00 0.00 0.00 46 1012.3
20260505115216 64 69 4.0 8.0 0.00 0.00 0.00 47 1012.4
20260505114005 63 119 4.0 10.0 0.00 0.00 0.00 51 1012.5
20260505113218 62 137 4.0 10.0 0.00 0.00 0.00 51 1012.3
20260505112005 63 89 5.0 9.0 0.00 0.00 0.00 52 1012.4
20260505111003 64 105 4.0 9.0 0.00 0.00 0.00 49 1012.5
20260505102003 63 65 3.0 9.0 0.00 0.00 0.00 52 1012.6
20260505101215 63 12 4.0 9.0 0.00 0.00 0.00 52 1012.7
20260505100003 62 51 4.0 8.0 0.00 0.00 0.00 54 1012.6
20260505095004 61 93 4.0 11.0 0.00 0.00 0.00 55 1012.6
20260505094007 61 72 4.0 11.0 0.00 0.00 0.00 54 1012.6
20260505093214 61 106 4.0 8.0 0.00 0.00 0.00 61 1012.5
20260505092003 60 77 3.0 9.0 0.00 0.00 0.00 61 1012.5
20260505091005 59 63 5.0 10.0 0.00 0.00 0.00 61 1012.6
20260505090009 59 42 4.0 10.0 0.00 0.00 0.00 62 1012.6
20260505085005 58 67 4.0 9.0 0.00 0.00 0.00 63 1012.6
20260505084219 58 72 4.0 8.0 0.00 0.00 0.00 62 1012.5
20260505083004 57 52 5.0 9.0 0.00 0.00 0.00 66 1012.5
20260505082005 56 65 4.0 8.0 0.00 0.00 0.00 65 1012.7
20260505081005 55 57 5.0 8.0 0.00 0.00 0.00 66 1012.4
20260505080005 55 46 5.0 8.0 0.00 0.00 0.00 66 1012.5
20260505075003 55 45 4.0 8.0 0.00 0.00 0.00 68 1012.3
20260505074003 54 51 4.0 8.0 0.00 0.00 0.00 72 1012.4
20260505073003 54 88 4.0 8.0 0.00 0.00 0.00 72 1012.4
20260505072004 54 60 4.0 6.0 0.00 0.00 0.00 74 1012.5
20260505071005 53 39 3.0 6.0 0.00 0.00 0.00 76 1012.5
20260505070007 53 60 4.0 8.0 0.00 0.00 0.00 79 1012.8
20260505065003 52 52 3.0 6.0 0.00 0.00 0.00 86 1012.8
20260505064005 51 47 3.0 7.0 0.00 0.00 0.00 93 1012.7
20260505063216 50 46 3.0 5.0 0.00 0.00 0.00 97 1012.7
20260505062005 48 42 3.0 7.0 0.00 0.00 0.00 99 1012.7
20260505061005 47 83 4.0 5.0 0.00 0.00 0.00 99 1012.9
20260505060004 45 48 4.0 7.0 0.00 0.00 0.00 99 1012.8
20260505055005 44 45 4.0 6.0 0.00 0.00 0.00 99 1012.8
20260505054003 44 48 3.0 4.0 0.00 0.00 0.00 99 1012.9
20260505053004 44 35 1.0 3.0 0.00 0.00 0.00 99 1012.9
20260505052003 43 165 1.0 2.0 0.00 0.00 0.00 99 1013.0
20260505051005 43 73 3.0 4.0 0.00 0.00 0.00 99 1012.9
20260505041005 42 357 1.0 2.0 0.00 0.00 0.00 99 1013.2
20260505040005 44 40 0.0 2.0 0.00 0.00 0.00 99 1013.3
20260505035003 42 19 1.0 2.0 0.00 0.00 0.00 99 1013.1
20260505034005 44 13 1.0 3.0 0.00 0.00 0.00 99 1013.2
20260505033006 42 24 1.0 3.0 0.00 0.00 0.00 98 1013.3
20260505032005 43 45 0.0 2.0 0.00 0.00 0.00 98 1013.1
20260505031006 42 10 0.0 2.0 0.00 0.00 0.00 96 1013.2
20260505030003 42 360 0.0 2.0 0.00 0.00 0.00 96 1013.3
20260505025003 42 315 1.0 2.0 0.00 0.00 0.00 95 1013.5
20260505024005 42 315 1.0 2.0 0.00 0.00 0.00 95 1013.4
20260505023003 42 315 0.0 2.0 0.00 0.00 0.00 94 1013.5
20260505022003 42 315 1.0 2.0 0.00 0.00 0.00 94 1013.4
20260505021003 42 315 0.0 2.0 0.00 0.00 0.00 94 1013.5
20260505020005 43 308 1.0 2.0 0.00 0.00 0.00 93 1013.5
20260505015217 43 282 0.0 2.0 0.00 0.00 0.00 93 1013.5
20260505014003 43 315 0.0 2.0 0.00 0.00 0.00 93 1013.4